Regional Weather Roundup
Issued by NWS

Home | Current Version | Previous Version | Graphics & Text | Print | Product List | Glossary On
Versions: 1 2 3 4 5 6 7 8 9 10 11 12 13 14 15 16 17 18 19 20 21 22 23 24 25 26 27 28 29 30 31 32 33 34 35 36 37 38 39 40 41 42 43 44 45 46 47 48 49 50
575
ASUS43 KLOT 251709
RWRIL

ILLINOIS REGIONAL WEATHER ROUNDUP
NATIONAL WEATHER SERVICE CHICAGO/ROMEOVILLE IL
1200 PM CDT MON SEP 25 2017

NOTE: "FAIR" INDICATES FEW OR NO CLOUDS BELOW 12,000 FEET WITH NO
SIGNIFICANT WEATHER AND/OR OBSTRUCTIONS TO VISIBILITY.

* THESE STATIONS ARE NOT UNDER NWS QUALITY CONTROL. THEY ALSO MAY NOT
  REPORT WEATHER SUCH AS PRECIPITATION OR FOG.

ILZ001-002-007-009-015-016-024-251800-
NORTHWEST ILLINOIS

CITY           SKY/WX    TMP DP  RH WIND       PRES   REMARKS
MOLINE         SUNNY     85  66  53 S6        29.96F HX  87
STERLING*      SUNNY     88  65  46 CALM      29.98F HX  90
SAVANNA*       SUNNY     84  65  53 W6        29.98S HX  86
$$

ILZ003-004-008-010-011-017-018-251800-
NORTH CENTRAL ILLINOIS

CITY           SKY/WX    TMP DP  RH WIND       PRES   REMARKS
ROCKFORD       SUNNY     89  61  38 CALM      29.99F HX  89
FREEPORT*      SUNNY     86  61  42 SE6       30.00F HX  86
ROCHELLE*      SUNNY     88  60  38 SW5       29.99F HX  88
DE KALB*       SUNNY     87  62  42 S3        30.01F HX  87
PERU*          SUNNY     87  62  43 SW3       29.99F HX  87
$$

ILZ005-006-012>014-019>023-251800-
NORTHEAST ILLINOIS

CITY           SKY/WX    TMP DP  RH WIND       PRES   REMARKS
CHICAGO-OHARE  MOSUNNY   88  61  40 SE8       29.99F HX  88
CHICAGO-MIDWAY MOSUNNY   89  62  40 SE7       29.99F HX  89
AURORA         SUNNY     87  66  49 VRB3      30.00F HX  89
LANSING*       SUNNY     88  62  42 S5        30.01F HX  88
JOLIET*        SUNNY     89  64  44 S6        29.99F HX  90
WAUKEGAN       SUNNY     83  67  58 E7        29.99F HX  85
DUPAGE AIRPORT SUNNY     86  64  47 SE7       29.99F HX  87
KANKAKEE*      SUNNY     87  63  44 SE3       30.01F HX  88
WHEELING       SUNNY     88  63  43 SE6       30.01F HX  89
MORRIS*        SUNNY     86  64  48 CALM      29.99F HX  87
ROMEOVILLE*    SUNNY     87  63  44 SE7       30.00F HX  88
NORTHERLY ISL    N/A     79  64  60 E3          N/A  HX  81
$$

LMZ740>746-251800-
SOUTHERN LAKE MICHIGAN

STATION/POSITION SKY/WX   TEMP    WIND        PRES    VSBY  WAVE
                          AIR SEA DIR/SP/G                  HT/PER
                          (F)     (DEG/KT/KT) (MB)    (MI)  (FT/S)
SOUTHERN BUOY              72 71  140/ 10/ 10 1016.4F         1/ 3
WILMETTE HARBOR            73 70  130/  8/ 10   N/A           1/ 2
HARRISON CRIB              76     140/ 12/ 12   N/A
BURNHAM HARBOR             79                   N/A
CALUMET HARBOR             81      50/  5/  7 1015.5F
BURNS HARBOR               86     200/  1/  7 1016.6F
MICHIGAN CITY              83     140/  4/  6   N/A
MICHIGAN CITY 6N           80 74  140/  4/  4   N/A           0
ST. JOSEPH                 78 72   CALM  /  2 1016.5          0
$$

ILZ025>027-034>036-040-047-049-050-058-095>099-251800-
WEST-CENTRAL ILLINOIS

CITY           SKY/WX    TMP DP  RH WIND       PRES   REMARKS
QUINCY         SUNNY     86  65  49 W7        29.98F HX  88
GALESBURG*     SUNNY     87  64  45 S6        29.99F HX  88
MACOMB*        SUNNY     87  63  45 SW8       30.00F HX  87
JACKSONVILLE*  SUNNY     87  63  44 SE6       29.99F HX  87
PITTSFIELD*    SUNNY     87  67  51 SW3       30.00F HX  89
$$

ILZ028>032-037-038-041>044-048-051>054-059>061-251800-
CENTRAL ILLINOIS

CITY           SKY/WX    TMP DP  RH WIND       PRES   REMARKS
PONTIAC        SUNNY     89  63  41 S6        30.00F HX  90
BLOOMINGTON    SUNNY     87  66  49 S8        30.02F HX  89
DECATUR        SUNNY     88  62  41 S8        30.01F HX  88
PEORIA         SUNNY     87  66  49 S8        29.99F HX  89
LACON*         SUNNY     88  65  45 S6        29.97F HX  89
LINCOLN*       SUNNY     88  65  46 SW5       29.99F HX  90
SPRINGFIELD    SUNNY     87  64  46 VRB3      30.00F HX  88
TAYLORVILLE    SUNNY     87  64  46 CALM      30.00F HX  88
$$

ILZ033-039-045-046-055>057-062-063-251800-
EAST-CENTRAL ILLINOIS

CITY           SKY/WX    TMP DP  RH WIND       PRES   REMARKS
CHAMPAIGN      MOSUNNY   88  60  38 VRB3      30.02F HX  87
RANTOUL*       SUNNY     89  62  40 SE5       30.01F HX  90
MATTOON        MOSUNNY   87  65  47 CALM      30.01F HX  89
PARIS*         PTSUNNY   87  65  47 S3        30.03F HX  89
$$

ILZ079-100>102-251800-
SOUTHWEST ILLINOIS

CITY           SKY/WX    TMP DP  RH WIND       PRES   REMARKS
ALTON          MOSUNNY   84  68  58 SW8       30.00F HX  87
BELLEVILLE     SUNNY     87  65  47 W6        29.99F HX  89
CAHOKIA*       SUNNY     88  64  44 W3        29.99F HX  89
SPARTA*        SUNNY     85  66  53 W3        30.02F HX  88
$$

ILZ064>066-069>071-074>076-080>082-084>086-088>090-092>094-251800-
SOUTH-CENTRAL ILLINOIS

CITY           SKY/WX    TMP DP  RH WIND       PRES   REMARKS
CARBONDALE     SUNNY     85  69  58 VRB5      30.01F HX  89
CAIRO*         SUNNY     83  70  64 SW3       30.02F HX  87
EFFINGHAM*     SUNNY     88  64  44 CALM      30.03F HX  89
MARION         MOSUNNY   86  66  51 W5        30.03F HX  88
MT. VERNON       N/A     86  67  52 E3        30.02F HX  89
CENTRALIA*     MOSUNNY   88  67  49 CALM      30.01F HX  91
SALEM*         SUNNY     87  65  47 CALM      30.01F HX  88
METROPOLIS*    LGT RAIN  87  68  51 S5        30.03F HX  90
$$

ILZ067-068-072-073-078-083-087-091-251800-
SOUTHEAST ILLINOIS

CITY           SKY/WX    TMP DP  RH WIND       PRES   REMARKS
LAWRENCEVILLE  MOSUNNY   87  66  49 SE5       30.02F HX  89
FLORA*         SUNNY     87  66  48 W5        30.02F HX  89
FAIRFIELD*     MOSUNNY   89  65  44 CALM      30.01F HX  90
HARRISBURG*    CLOUDY    88  67  50 W5        30.02F HX  91
ROBINSON*      SUNNY     86  65  49 NE3       30.03F HX  87
CARMI*         SUNNY     86  66  51 CALM      30.01F HX  88
$$

ABBREVIATIONS USED IN REMARKS
   TC - TEMPERATURE IN CELSIUS
  WCI - WIND CHILL INDEX
   HX - HEAT INDEX
  VSB - VISIBILITY
$$





USA.gov is the U.S. government's official web portal to all federal, state and local government web resources and services.